Flag for Germany Weather past 2 weeks in Pforzheim, Baden-Württemberg, Germany

Now
77 °F

Sunny.


Feels Like: 78 °F
Forecast: 54 / 78 °F
Wind: 13 mph from North

Location: Stuttgart-Echterdingen

Current Time: Jul 24, 2014 at 3:40:39 PM

Latest Report: Jul 24, 2014 at 2:50 PM


Visibility: 10 mi

Pressure: 29.92 "Hg

Humidity: 36%

Dew point: 48 °F

Location of PforzheimLocation

Historic Weather in Pforzheim — Graph

°F

Pforzheim temperature yesterday

Maximum temperature yesterday: 81 °F (at 4:50 PM)
Minimum temperature yesterday: 61 °F (at 1:50 AM)
Average temperature yesterday: 70 °F

Past Weeks' High & Low Weather Summary

 TemperatureHumidityPressure
High91 °F (Jul 19, 3:50 PM)100% (Jul 11, 3:20 AM)30.21 "Hg (Jul 11, 3:20 AM)
Low52 °F (Jul 9, 9:20 PM)22% (Jul 18, 2:50 PM)29.77 "Hg (Jul 10, 1:50 AM)
Average68 °F72%29.98 "Hg
* Reported Jul 9 2:50 PM — Jul 24 2:20 PM, Pforzheim, Weather by CustomWeather, © 2014

Note: Actual official high and low records may vary slightly from our data, if they occured in-between our weather recording intervals... More about our weather records

Advertising

Pforzheim weather history for previous 24 hours

 ConditionsComfort  
Time TempWeatherWind HumidityBarometerVisibility
2:20 PM
Jul 24
79 °FPassing clouds.6 mph32%29.92 "HgN/A
1:50 PM77 °FSunny.8 mph39%29.92 "Hg10 mi
1:20 PM77 °FPassing clouds.8 mph44%29.92 "HgN/A
12:50 PM75 °FPassing clouds.6 mph54%29.92 "HgN/A
12:20 PM75 °FPassing clouds.8 mph54%29.95 "HgN/A
11:50 AM73 °FPassing clouds.7 mph53%29.92 "HgN/A
11:20 AM73 °FPassing clouds.6 mph57%29.95 "HgN/A
10:50 AM73 °FSunny.6 mph53%29.92 "Hg10 mi
10:20 AM72 °FPassing clouds.5 mph57%29.92 "HgN/A
9:50 AM72 °FSunny.3 mph57%29.92 "Hg10 mi
9:20 AM70 °FSunny.5 mph60%29.92 "Hg10 mi
8:50 AM68 °FSunny.5 mph64%29.92 "Hg10 mi
8:20 AM66 °FSunny.6 mph68%29.92 "Hg10 mi
7:50 AM66 °FSunny.3 mph64%29.92 "Hg10 mi
7:20 AM63 °FSunny.2 mph77%29.92 "Hg10 mi
6:50 AM63 °FSunny.2 mph77%29.92 "Hg10 mi
6:20 AM61 °FClear.2 mph77%29.92 "Hg10 mi
5:50 AM59 °FClear.2 mph82%29.92 "Hg10 mi
5:20 AM59 °FClear.6 mph82%29.92 "Hg10 mi
4:50 AM61 °FClear.3 mph77%29.92 "Hg10 mi
4:20 AM59 °FClear.3 mph82%29.92 "Hg10 mi
3:50 AM61 °FClear.1 mph77%29.92 "Hg10 mi
3:20 AM63 °FClear.2 mph77%29.92 "Hg10 mi
2:50 AM64 °FClear.6 mph68%29.92 "Hg10 mi
2:20 AM63 °FClear.3 mph77%29.95 "Hg10 mi
1:50 AM63 °FClear.2 mph73%29.95 "Hg10 mi
1:20 AM64 °FClear.1 mph68%29.95 "Hg10 mi
12:50 AM63 °FClear.3 mph77%29.95 "Hg10 mi
12:20 AM66 °FClear.5 mph68%29.95 "Hg10 mi
11:50 PM
Jul 23
66 °FClear.2 mph68%29.95 "Hg10 mi
11:20 PM66 °FClear.2 mph68%29.98 "Hg10 mi
10:50 PM68 °FClear.3 mph64%29.98 "Hg10 mi
10:20 PM70 °FClear.5 mph60%29.98 "Hg10 mi
9:50 PM70 °FSunny.7 mph60%29.98 "Hg10 mi
9:20 PM72 °FSunny.8 mph57%29.95 "Hg10 mi
8:50 PM75 °FSunny.9 mph47%29.95 "Hg10 mi
8:20 PM77 °FSunny.10 mph44%29.95 "Hg10 mi
7:50 PM79 °FSunny.9 mph39%29.95 "Hg10 mi
7:20 PM79 °FSunny.9 mph39%29.95 "Hg10 mi
6:50 PM81 °FSunny.13 mph34%29.95 "Hg10 mi
6:20 PM81 °FSunny.13 mph37%29.95 "Hg10 mi
5:50 PM81 °FSunny.12 mph39%29.95 "Hg10 mi
5:20 PM81 °FSunny.9 mph37%29.95 "Hg10 mi
4:50 PM81 °FSunny.6 mph39%29.95 "Hg10 mi
4:20 PM79 °FSunny.9 mph51%29.98 "Hg10 mi
3:50 PM79 °FSunny.10 mph45%29.98 "Hg10 mi
3:20 PM77 °FSunny.14 mph51%29.98 "Hg10 mi
Weather by CustomWeather, © 2014

See weather overviewHow to use our weather pages